Location: Atzendorf
(51.9195°N, 11.5991°E)
Time: 22:38:03
(UTC+00:00)

Daily predictions for brighter satellites

Satellite Brightness Start Highest point End
(mag) Time Altitude Azimuth Time Altitude Azimuth Time Altitude Azimuth
Cosmos 1975 Rocket 3.4 17:34:33 10° NNW 17:38:52 72° W 17:43:10 10° S
Lacrosse 5 rocket 2.4 17:35:43 10° WNW 17:39:50 43° N 17:44:08 10° ENE
Cosmos 2151 Rocket 4.4 17:36:26 10° SSE 17:40:21 30° E 17:44:18 10° NNE
Cosmos 494 Rocket 4.3 17:37:12 10° NNW 17:42:21 50° ENE 17:47:28 10° SE
HJ-1C 3.6 17:42:24 10° SE 17:45:34 46° ENE 17:48:46 10° N
Cosmos 2233 Rocket 4.4 17:40:42 10° SSW 17:46:53 70° WNW 17:53:04 10° N
COSMO-SKYMED 1 2.8 17:44:16 10° NNE 17:48:37 76° WNW 17:52:58 10° SSW
Nadezhda 4 Rocket 4.1 17:45:33 10° N 17:51:33 54° ENE 17:57:32 10° SSE
Cosmos 1689 Rocket 3.7 17:49:39 10° N 17:52:29 40° WNW 17:55:18 10° SW
Ariane Rocket 3.7 17:49:35 10° SE 17:54:08 35° ENE 17:58:43 10° N
H-2A R/B 2.0 17:49:59 10° SSE 17:54:58 67° ENE 18:00:07 10° N
SL-08 RB Rocket 4.3 17:51:53 10° SE 17:56:04 38° ENE 18:00:16 10° N
OBJECT-B 2.9 17:55:36 11° E 17:56:50 13° ENE 17:58:22 10° NNE
SJ 16-02 3.8 17:53:14 10° WSW 17:56:51 25° NW 18:00:29 10° N
USA 116 3.7 17:55:19 10° NNE 17:58:52 55° ESE 18:02:51 10° S
Exosat Rocket 4.3 17:54:45 10° SSE 17:59:12 28° ESE 18:03:28 10° NE
Cosmos 2263 Rocket 3.1 17:54:42 10° SW 18:00:08 53° NW 18:05:40 10° NNE
COSMOS 2406 3.9 17:55:42 10° NNW 18:01:00 38° NE 18:05:50 12° ESE
KORONAS-FOTON 4.3 17:57:34 10° N 18:01:19 41° ENE 18:05:02 10° SE
Cosmos 1707 3.2 18:00:12 10° NNW 18:04:01 64° W 18:07:48 10° S
Cosmos 1844 Rocket 2.8 17:59:14 10° S 18:04:33 50° ESE 18:09:57 10° NE
Cosmos 1626 3.5 18:02:30 10° NNE 18:05:27 22° ENE 18:07:28 15° ESE
NOSS 3-2 (C) 4.1 17:58:52 10° NW 18:06:12 85° SW 18:14:37 10° SE
Cosmos 372 Rocket 4.0 18:01:10 10° SSW 18:06:24 86° ESE 18:11:39 10° NNE
Cosmos 2278 Rocket 3.8 18:10:00 13° E 18:10:00 13° E 18:11:48 10° ENE
ATLAS CENTAUR R/B 3.7 18:08:56 10° NW 18:10:42 13° N 18:12:27 10° NNE
Meteor 2-5 Rocket 4.1 18:06:21 10° N 18:11:49 46° ENE 18:17:20 10° SE
Cosmos 1844 3.9 18:06:38 10° S 18:12:02 46° ESE 18:17:23 10° NE
Cosmos 2034 Rocket 4.1 18:06:08 10° S 18:12:20 59° E 18:18:32 10° NNE
ISS -3.7 18:09:00 10° WSW 18:12:22 69° SSE 18:14:49 17° E
NOSS 5 (C) 4.2 18:09:47 10° NW 18:12:50 79° NE 18:15:45 15° SE
NOSS 3-4 (A) 4.2 18:08:38 10° S 18:13:32 27° ESE 18:18:40 10° ENE
NOSS 3-4 (C) 4.2 18:08:46 10° S 18:13:39 27° ESE 18:18:46 10° ENE
USA 186 2.3 18:11:03 11° SE 18:13:56 39° ENE 18:17:04 10° N
Lacrosse 4 Rocket 2.9 18:11:03 10° NNW 18:14:17 22° NE 18:16:33 15° ENE
Meteor 1-24 Rocket 4.3 18:09:11 10° N 18:14:22 38° ENE 18:19:24 11° SE
Meteor 1-12 Rocket 4.3 18:09:51 10° S 18:15:42 83° ESE 18:21:31 10° NNE
Cosmos 1300 Rocket 3.6 18:16:31 10° S 18:20:56 87° W 18:25:25 10° N
Okean 1 Rocket 3.5 18:20:01 10° SSE 18:24:11 39° E 18:28:22 10° NNE
SL-14 R/B 4.1 18:21:03 10° N 18:24:35 31° ENE 18:26:27 21° ESE
CENTAUR R/B 3.4 18:17:19 10° NW 18:25:14 75° SW 18:33:59 10° SSE
NOSS 2-2 (E) 4.2 18:22:57 10° WSW 18:26:29 49° NW 18:30:47 10° NE
Cosmos 1833 Rocket 3.2 18:21:09 10° NNW 18:26:33 43° NE 18:30:11 19° ESE
Resurs 01 Rocket 3.0 18:25:52 19° E 18:27:28 23° ENE 18:30:57 10° N
Cosmos 2298 Rocket 4.0 18:22:20 10° SSW 18:27:41 89° ESE 18:33:03 10° NNE
CSL-04 Rocket 4.4 18:27:49 10° S 18:33:11 56° WSW 18:38:39 10° NNW
Cosmos 1025 Rocket 4.0 18:29:06 10° NNW 18:33:22 50° W 18:37:36 10° S
Cosmos 1766 3.7 18:31:27 10° SSE 18:35:09 40° E 18:38:53 10° NNE
Okean 2 Rocket 3.6 18:31:05 10° SSW 18:35:32 63° WNW 18:39:59 10° N
YAOGAN 1 4.5 18:32:03 10° SSW 18:35:55 32° W 18:39:49 10° NNW
ATLAS 2AS CENTAUR R/B 3.4 18:28:46 10° S 18:36:03 41° ESE 18:43:17 10° NE
NOSS 2-2 (D) 4.1 18:32:50 10° WSW 18:36:21 49° NW 18:40:32 10° NE
ATLAS 3B R/B 2.8 18:30:58 10° NW 18:37:45 65° NE 18:42:35 21° ESE
Cosmos 1634 Rocket 4.2 18:34:18 10° SSE 18:40:06 45° E 18:45:57 10° NNE
Abrixas rocket 3.7 18:39:08 10° WSW 18:41:22 21° SSW 18:42:11 18° S
SPOT 3 Rocket 4.0 18:40:10 23° ESE 18:42:59 42° ENE 18:47:50 10° N
ARIANE 5 R/B 4.1 18:42:31 19° ENE 18:43:06 20° ENE 18:46:13 10° NNE
Cosmos 1536 Rocket 4.4 18:38:48 10° NNW 18:43:09 53° W 18:47:30 10° S
Cosmos 1125 Rocket 3.5 18:42:59 10° SSW 18:48:19 84° ESE 18:53:41 10° NNE
Cosmos 1892 Rocket 3.9 18:45:51 10° N 18:50:00 43° ENE 18:51:25 32° ESE
Resurs 1-3 3.9 18:48:54 29° SE 18:50:45 48° ENE 18:55:00 10° N
SJ-6B 2.6 18:48:31 21° SSE 18:50:57 82° ENE 18:54:47 10° NNW
Cosmos 2195 Rocket 4.4 18:47:10 10° N 18:53:27 82° E 18:59:38 10° SSE
CZ-4 R/B 4.4 18:50:47 10° SW 18:53:44 18° W 18:56:40 10° NW
Cosmos 1627 Rocket 4.5 18:48:37 10° N 18:55:03 77° E 19:01:24 10° SSE
Cosmos 1674 3.5 18:51:49 10° NNW 18:55:35 51° W 18:59:18 10° S
Cosmos 2026 Rocket 4.0 18:49:54 10° N 18:56:19 76° ENE 19:02:16 12° SSE
Cosmos 1092 Rocket 4.0 18:50:19 10° N 18:56:31 87° W 19:02:44 10° S
Cosmos 2285 Rocket 3.9 18:52:45 10° SSW 18:59:04 81° ESE 19:05:29 10° NNE
MOS 1 Rocket 3.7 18:57:17 10° N 19:01:37 58° WNW 19:05:50 10° SSW
FREGAT/IRIS 2.6 19:04:41 59° WSW 19:04:46 60° WSW 19:07:22 10° NNW
Cosmos 1428 Rocket 4.4 18:58:34 10° N 19:04:53 81° E 19:10:06 15° SSE
TSX-5 4.0 19:06:11 10° SSW 19:10:08 64° ESE 19:15:17 10° NE
ARGOS 4.3 19:06:08 10° SSW 19:11:12 42° W 19:16:20 10° NNW
CZ-2C R/B 2.6 19:06:15 10° NNE 19:11:51 80° ESE 19:17:29 10° SSW
Cosmos 1340 Rocket 2.7 19:15:11 58° SE 19:15:38 64° E 19:19:38 10° NNE
Cosmos 2279 Rocket 4.1 19:12:59 24° SSE 19:16:37 52° E 19:22:40 10° NNE
Cosmos 1733 3.2 19:13:48 12° SSW 19:17:21 80° W 19:21:12 10° N
MetOp-B 4.5 19:17:29 40° ESE 19:18:42 47° ENE 19:23:49 10° N
Cosmos 2098 Rocket 4.2 19:12:53 10° N 19:19:36 51° ENE 19:21:19 40° ESE
Lacrosse 5 rocket 1.9 19:15:16 10° WNW 19:19:37 54° NNE 19:20:43 42° ENE
Cosmos 2082 Rocket 2.3 19:14:06 10° NNW 19:19:40 58° NE 19:21:17 42° ESE
DMSP B5D2-2 4.0 19:16:23 10° NNE 19:21:43 84° ESE 19:27:00 10° SSW
BREEZE-M R/B 3.7 19:17:09 10° WSW 19:24:25 51° S 19:24:25 51° S
Spot 2 Rocket 4.0 19:25:14 38° ENE 19:25:33 38° ENE 19:30:13 10° N
OBJECT-B 1.3 19:28:48 58° W 19:28:48 58° W 19:32:00 10° NNW
Cosmos 1805 4.4 19:25:36 10° SSW 19:29:21 44° WNW 19:33:09 10° N
Cosmos 2142 Rocket 4.4 19:24:37 13° S 19:30:18 73° E 19:36:30 10° NNE
Ariane Rocket 4.1 19:28:14 10° S 19:33:02 42° W 19:37:52 10° NNW
H-2A R/B 4.4 19:31:08 10° SW 19:34:55 21° W 19:38:47 10° NW
Cosmos 1626 3.5 19:37:24 10° NNW 19:40:50 36° W 19:42:02 28° SW
Cosmos 1626 Rocket 4.1 19:36:53 10° N 19:40:32 46° NE 19:40:32 46° NE
Okean 1-7 Rocket 3.6 19:36:40 10° NNW 19:41:17 85° W 19:41:50 68° S
Terra 3.5 19:42:51 21° NE 19:42:51 21° NE 19:45:39 10° N
COSMOS 2406 3.9 19:40:01 10° NW 19:45:30 50° WSW 19:47:55 31° SSW
Cosmos 407 Rocket 4.3 19:41:39 10° NNW 19:46:14 35° NE 19:46:14 35° NE
Cosmos 1455 Rocket 3.3 19:47:18 56° NNE 19:47:18 56° NNE 19:50:51 10° NNE
Cosmos 1844 Rocket 4.1 19:43:27 10° WSW 19:48:38 38° NW 19:53:52 10° NNE
SPOT 1/Viking Rocket 3.8 19:48:44 52° ENE 19:48:44 52° ENE 19:53:39 10° N
ISS -2.1 19:45:46 10° W 19:47:46 33° W 19:47:46 33° W
ATLAS CENTAUR R/B 3.6 19:49:02 10° NNW 19:51:03 14° NNE 19:51:16 14° NNE
Cosmos 2278 Rocket 2.0 19:51:32 60° SSE 19:52:21 69° ESE 19:58:00 10° NE
Lacrosse 4 Rocket 1.7 19:49:19 10° NW 19:52:52 63° WNW 19:52:52 63° WNW
Cosmos 909 Rocket 4.0 19:52:01 10° NW 19:58:39 84° SW 19:59:55 60° SSE
Cosmos 2266 Rocket 3.8 19:53:50 10° N 19:59:55 74° ENE 20:00:33 67° SE
Resurs 01 Rocket 2.1 20:03:26 54° WSW 20:03:39 55° W 20:08:03 10° NNW
NOSS 3-4 (A) 3.5 19:57:47 10° SW 20:03:46 78° NW 20:10:18 10° NE
NOSS 3-4 (C) 3.5 19:57:53 10° SW 20:03:52 79° NW 20:10:24 10° NE
Cosmos 614 Rocket 4.2 20:02:06 10° NNW 20:06:44 60° NNE 20:06:44 60° NNE
CZ-2C R/B 4.0 20:05:55 10° N 20:09:58 64° NW 20:09:58 64° NW
Cosmos 1833 Rocket 3.5 20:05:12 10° NW 20:10:32 43° WSW 20:11:54 37° SW
Cosmos 1470 4.3 20:12:29 31° N 20:12:29 31° N 20:14:42 10° N
Cosmos 2251 Rocket 3.7 20:08:07 10° NNW 20:13:26 64° WSW 20:13:44 63° SW
ERS-1 Rocket 3.6 20:17:40 48° NNE 20:17:40 48° NNE 20:21:34 10° N
ARIANE 5 R/B 3.4 20:20:05 49° NW 20:20:05 49° NW 20:23:29 10° NNW
ATLAS 2AS CENTAUR R/B 3.2 20:18:49 10° SW 20:26:48 72° NW 20:34:36 10° NE
Landsat 7 4.4 20:27:59 56° NW 20:27:59 56° NW 20:32:00 10° NNW
ATLAS 3B R/B 3.5 20:21:55 10° NW 20:28:15 41° WSW 20:29:50 36° SSW
SPOT 5 3.6 20:33:48 54° N 20:33:48 54° N 20:38:01 10° NNW
Meteor 1-21 Rocket 4.5 20:27:17 10° NNW 20:33:00 64° W 20:33:15 63° WSW
Meteor 2-10 4.3 20:34:18 67° NNW 20:34:18 67° NNW 20:39:08 10° N
Cosmos 1461 4.3 20:36:17 10° NW 20:39:30 42° NW 20:39:30 42° NW
NOSS 3-1 (C) 4.5 20:41:54 10° NW 20:48:35 48° NNE 20:50:02 43° ENE
Lacrosse 5 rocket 3.6 20:54:30 10° WNW 20:56:20 24° WNW 20:56:20 24° WNW
Cosmos 2082 Rocket 3.6 20:58:38 10° NW 21:03:08 30° W 21:03:08 30° W
COSMOS 2455 4.3 21:14:36 29° NNE 21:14:36 29° NNE 21:17:23 10° NE
Cosmos 2297 Rocket 4.5 21:10:01 10° NNW 21:13:17 15° NNE 21:14:40 14° NE
Terra 3.6 21:21:44 29° NNW 21:21:44 29° NNW 21:24:08 10° NNW
Cosmos 2278 Rocket 3.9 21:33:01 15° W 21:36:57 30° NW 21:41:55 10° NNE
USA 229 DEB 4.2 21:42:53 10° NW 21:49:03 60° N 21:49:03 60° N
USA 229 4.2 21:42:59 10° NW 21:49:09 60° N 21:49:09 60° N
NOSS 3-1 (A) 4.3 21:55:10 10° NW 22:01:23 60° N 22:01:23 60° N
Cosmos 2227 Rocket 4.2 22:07:54 10° NNW 22:11:41 22° NNE 22:11:41 22° NNE
ATLAS 2AS CENTAUR R/B 4.2 22:11:42 10° W 22:19:01 38° NNW 22:26:04 10° NE
Cosmos 1943 Rocket 4.2 22:24:03 23° NNE 22:24:03 23° NNE 22:26:06 10° NNE
CZ-4C R/B 3.8 22:45:17 33° N 22:45:17 33° N 22:49:52 10° NE
Cosmos 2297 Rocket 4.0 22:53:35 10° NNW 22:56:26 27° N 22:56:26 27° N
Cosmos 2369 Rocket 4.0 23:10:31 27° N 23:10:31 27° N 23:13:15 10° NNE
Resurs 1-4 Rocket 4.4 23:44:02 10° NE 23:45:52 17° ENE 23:45:52 17° ENE
SL-16 R/B 3.7 23:50:37 39° NE 23:50:37 39° NE 23:55:13 10° N
CZ-2D R/B 4.4 23:50:14 10° NE 23:52:17 18° ENE 23:52:17 18° ENE
